This demonstration page uses our WeatherBlox Daily Observations layout. Learn more.

Left ArrowRight Arrow

Hourly Observations for February 26, 2022

Temp ( °F °C ) Dew Point ( °F °C ) Humidity (%) Winds ( mph kmh ) Pressure ( in mb ) Visibility ( mi km ) Precip ( " mm )
12:56 am 00:56 Clear 16 -8.9 7 -14.1 66 66 SSW 7 11 30.61 1037 10 16 0.00 0.00
1:56 am 01:56 Clear 15 -9.2 6 -14.6 65 65 S 8 13 30.60 1036 10 16 0.00 0.00
2:56 am 02:56 Clear 14 -10.2 5 -15 68 68 S 5 7 30.58 1036 10 16 0.00 0.00
3:56 am 03:56 Clear 11 -11.8 4 -15.5 74 74 Calm 30.57 1035 10 16 0.00 0.00
4:56 am 04:56 Clear 11 -11.8 4 -15.5 74 74 Calm 30.56 1035 10 16 0.00 0.00
5:56 am 05:56 Clear 10 -12 4 -15.6 75 75 S 5 7 30.57 1035 10 16 0.00 0.00
6:56 am 06:56 Clear 10 -12.4 4 -15.8 76 76 S 5 7 30.56 1035 10 16 0.00 0.00
7:56 am 07:56 Sunny 13 -10.7 5 -15.1 70 70 SSE 5 7 30.56 1035 10 16 0.00 0.00
8:56 am 08:56 Sunny 18 -7.6 8 -13.4 64 64 S 5 7 30.56 1035 10 16 0.00 0.00
9:56 am 09:56 undefined 28 -2.4 10 -12.5 46 46 SSW 8 13 30.53 1034 10 16 0.00 0.00
10:56 am 10:56 undefined 35 1.8 9 -12.8 33 33 SW 9 15 30.51 1033 10 16 0.00 0.00
11:56 am 11:56 Sunny 40 4.4 8 -13.5 26 26 SW 13 20 30.50 1033 10 16 0.00 0.00
12:56 pm 12:56 Sunny 43 6.2 8 -13.4 23 23 SW 12 19 30.46 1032 10 16 0.00 0.00
1:56 pm 13:56 Sunny 45 7.4 7 -14.1 20 20 S 15 24 30.41 1030 10 16 0.00 0.00
2:56 pm 14:56 Sunny 46 7.9 6 -14.3 19 19 SW 13 20 30.39 1029 10 16 0.00 0.00
3:56 pm 15:56 Sunny 46 7.9 5 -15 18 18 SSW 15 24 30.37 1029 10 16 0.00 0.00
4:56 pm 16:56 Sunny 45 7.2 3 -16.3 17 17 SSW 13 20 30.37 1029 10 16 0.00 0.00
5:56 pm 17:56 Sunny 41 5.1 3 -16.1 20 20 SSW 8 13 30.37 1029 10 16 0.00 0.00
6:56 pm 18:56 Clear 36 2.3 3 -16.2 24 24 S 6 9 30.38 1029 10 16 0.00 0.00
7:56 pm 19:56 Clear 33 0.7 4 -15.8 28 28 SE 3 6 30.38 1029 10 16 0.00 0.00
8:56 pm 20:56 Clear 31 -0.3 4 -15.4 31 31 SE 3 6 30.39 1029 10 16 0.00 0.00
9:56 pm 21:56 Clear 30 -1.2 4 -15.4 33 33 Calm 30.39 1029 10 16 0.00 0.00
10:56 pm 22:56 Clear 29 -1.9 5 -15 36 36 W 6 9 30.40 1029 10 16 0.00 0.00
11:56 pm 23:56 Clear 27 -3 4 -15.3 38 38 WNW 6 9 30.39 1029 10 16 0.00 0.00

Powered by AerisWeather